Location: İstanbul
(41.0082°N, 28.9784°E)
Time: 09:53:39
(UTC+03:00)

STRAND 1 - Visible Passes

Search period start: 26 October 2021 00:00
Search period end: 04 November 2021 23:00
Orbit: 768 x 780 km, 98.4° (Epoch: 25 October)

Date Brightness Start Highest point End Pass type
(mag) Time Alt. Az. Time Alt. Az. Time Alt. Az.
26 Oct ? 06:12:43 10° ESE 06:16:25 21° ENE 06:20:09 10° NNE visible
26 Oct ? 20:05:40 56° ESE 20:05:40 56° ESE 20:10:38 10° S visible
26 Oct ? 21:46:06 16° W 21:46:06 16° W 21:47:46 10° WSW visible
27 Oct ? 05:42:18 10° ENE 05:42:50 10° ENE 05:43:21 10° NE visible
27 Oct ? 19:31:44 27° ESE 19:31:44 27° ESE 19:35:38 10° SSE visible
27 Oct ? 21:12:11 29° WSW 21:12:11 29° WSW 21:15:12 10° SW visible
28 Oct ? 06:42:27 10° SE 06:47:10 38° ENE 06:51:53 10° N visible
28 Oct ? 18:57:41 12° E 18:57:41 12° E 18:59:06 10° ESE visible
28 Oct ? 20:38:06 46° SSW 20:38:06 46° SSW 20:41:43 10° SSW visible
29 Oct ? 06:09:49 10° ESE 06:13:23 19° ENE 06:16:59 10° NNE visible
29 Oct ? 20:03:58 40° SSE 20:03:58 40° SSE 20:07:30 10° S visible
29 Oct ? 21:44:23 12° WSW 21:44:23 12° WSW 21:44:52 10° WSW visible
30 Oct ? 19:29:46 22° ESE 19:29:46 22° ESE 19:32:26 10° SSE visible
30 Oct ? 21:10:11 22° WSW 21:10:11 22° WSW 21:12:12 10° SW visible
31 Oct ? 05:39:28 10° SE 05:44:06 35° ENE 05:48:46 10° N visible
31 Oct ? 17:55:32 10° ESE 17:55:32 10° ESE 17:55:34 10° ESE visible
31 Oct ? 19:35:57 32° SSW 19:35:57 32° SSW 19:38:39 10° SSW visible
01 Nov ? 05:06:55 10° ESE 05:10:21 18° ENE 05:13:48 10° NNE visible
01 Nov ? 19:01:40 30° SSE 19:01:40 30° SSE 19:04:22 10° S visible
02 Nov ? 18:27:22 18° SE 18:27:22 18° SE 18:29:12 10° SSE visible
02 Nov ? 20:07:47 18° SW 20:07:47 18° SW 20:09:12 10° SW visible
03 Nov ? 05:36:29 10° SE 05:41:03 33° ENE 05:45:39 10° N visible
03 Nov ? 19:33:28 26° SSW 19:33:28 26° SSW 19:35:35 10° SSW visible
04 Nov ? 05:04:02 10° ESE 05:07:19 17° ENE 05:10:36 10° NNE visible
04 Nov ? 18:59:06 24° SSE 18:59:06 24° SSE 19:01:14 10° S visible
